#timestamp,LO_Frequency,Hit,StdDev 
1550768415.4,286046996.7,N
1550768435.3,286046995.0,N
1550768455.1,286046995.6,N
1550768475.9,286046997.3,N
1550768495.7,286046998.2,N
1550768515.5,286046999.3,N
1550768535.4,286046998.7,N
1550768555.2,286046998.2,N
1550768575.0,286046999.1,N
1550768575.9,286046999.1,N
1550768595.8,286046997.2,N
1550768615.6,286046995.0,N
1550768635.5,286046996.1,N
1550768655.3,286046994.8,N
1550768675.1,286046993.8,N
1550768695.9,286046994.5,N
1550768715.7,286046994.7,N
1550768735.5,286046996.4,N
1550768755.4,286046997.6,N
1550768775.2,286046995.3,N
1550768795.1,286046994.9,N
1550768796.0,286046994.9,N
1550768815.8,286046995.5,N
1550768835.6,286046993.5,Y
1550768855.5,286046996.9,P
1550768875.3,286046999.6,P
1550768895.2,286046999.2,N
1550768915.9,286046998.2,N
1550768935.7,286046999.2,N
1550768955.6,286046996.1,Y
1550768975.4,286046995.1,P
1550768995.2,286046995.7,N
1550769015.1,286046995.0,P
1550769016.0,286046995.0,Y
1550769035.8,286047001.9,P
1550769055.7,286047002.6,N
1550769075.5,286047004.2,N
1550769095.3,286047005.4,N
1550769115.2,286047007.2,N
1550769135.0,286047003.9,N
1550769135.9,286047003.9,N
1550769155.8,286047003.1,N
1550769175.6,286047001.3,N
1550769195.4,286047004.2,N
1550769215.3,286047003.7,N
1550769235.1,286047005.4,N
1550769255.8,286047004.4,N
1550769275.7,286047001.7,N
1550769295.5,286047002.0,N
1550769315.4,286047001.6,N
1550769335.2,286047000.1,N
1550769355.0,286046999.9,N
1550769355.9,286046999.9,N
1550769375.8,286047005.5,N
1550769395.6,286047002.8,N
1550769415.5,286046997.0,N
1550769435.3,286046997.4,N
1550769455.1,286046995.8,N
1550769475.9,286046994.0,N
1550769495.7,286046993.7,N
1550769515.5,286046995.0,N
1550769535.4,286046996.4,N
1550769555.2,286046991.8,N
1550769575.1,286046992.5,N
1550769576.0,286046992.5,N
1550769595.8,286046991.8,N
1550769615.6,286046994.5,N
1550769635.5,286046995.6,N
1550769655.3,286046993.8,N
1550769675.1,286046993.9,N
1550769695.9,286046994.3,N
1550769715.7,286046991.7,N
1550769735.6,286046993.9,N
1550769755.4,286046996.4,N
1550769775.2,286046994.0,N
1550769795.1,286046994.0,N
1550769796.0,286046994.0,N
1550769815.8,286046992.1,N
1550769835.7,286046990.2,N
1550769855.5,286046994.4,N
1550769875.3,286046991.9,N
1550769895.2,286046991.9,N
1550769915.9,286046992.9,N
1550769935.7,286046992.5,N
1550769955.6,286046990.8,Y
1550769975.4,286046995.1,P
1550769995.3,286046995.3,P
1550770015.1,286046995.1,P
1550770016.0,286046995.1,Y
1550770035.8,286047002.5,P
1550770055.7,286047002.2,N
1550770075.5,286047001.5,N
1550770095.4,286047010.6,Y
1550770115.2,286047007.9,P
1550770135.0,286047009.0,N
1550770135.9,286047009.0,N
1550770155.8,286047006.3,N
1550770175.6,286047005.3,N
1550770195.5,286047004.9,N
1550770215.3,286047005.3,N
1550770235.1,286047004.2,N
1550770255.9,286047005.3,N
1550770275.7,286047007.6,Y
1550770295.5,286047001.3,P
1550770315.4,286047005.4,N
1550770335.2,286047003.0,N
1550770355.1,286047001.3,N
1550770356.0,286047001.3,N
1550770375.8,286047001.4,N
1550770395.6,286047000.5,N
1550770415.5,286047001.2,N
1550770435.3,286046996.8,N
1550770455.1,286046997.2,N
1550770475.9,286046998.8,N
1550770495.7,286046997.3,N
1550770515.6,286046999.7,N
1550770535.4,286046999.6,N
1550770555.2,286046995.4,N
1550770575.1,286046996.0,N
1550770576.0,286046996.0,N
1550770595.8,286046991.9,N
1550770615.7,286046990.5,N
1550770635.5,286046990.8,N
1550770655.3,286046990.5,N
1550770675.2,286046990.6,N
1550770695.9,286046994.6,N
1550770715.7,286046992.5,N
1550770735.6,286046990.3,N
1550770755.4,286046991.2,N
1550770775.3,286046989.7,N
1550770795.1,286046989.2,N
1550770796.0,286046989.2,N
1550770815.8,286046992.6,N
1550770835.7,286046994.7,N
1550770855.5,286046993.6,N
1550770875.3,286046997.5,N
1550770895.2,286046994.8,N
1550770915.0,286046990.4,N
1550770915.9,286046990.4,N
1550770935.8,286046989.4,N
1550770955.6,286046985.3,Y
1550770975.4,286046993.2,P
1550770995.3,286046991.4,P
1550771015.1,286046990.9,P
1550771035.9,286046989.2,Y
1550771055.7,286046996.0,P
1550771075.5,286046994.8,N
1550771095.4,286046991.7,P
1550771115.2,286046992.7,Y
1550771135.1,286046997.4,P
1550771136.0,286046997.4,N
1550771155.8,286046996.6,N
1550771175.6,286046997.9,N
1550771195.5,286046996.9,N
1550771215.3,286046995.0,Y
1550771235.1,286047001.0,P
1550771255.9,286047000.5,N
1550771275.7,286047001.0,N
1550771295.6,286047000.8,N
1550771315.4,286046998.1,N
1550771335.2,286046999.2,N
1550771355.1,286046998.4,N
1550771356.0,286046998.4,N
1550771375.8,286046999.2,N
1550771395.6,286047001.2,N
1550771415.5,286047002.4,N
1550771435.3,286047000.5,N
1550771455.2,286047000.6,N
1550771475.9,286046998.6,N
1550771495.7,286046998.2,N
1550771515.6,286047000.3,N
1550771535.4,286046999.4,N
1550771555.2,286046997.0,N
1550771575.1,286047000.9,N
1550771576.0,286047000.9,N
1550771595.8,286047002.5,N
1550771615.7,286047001.5,N
1550771635.5,286047001.1,N
1550771655.3,286047001.1,N
1550771675.2,286046998.8,N
1550771695.0,286047000.5,N
1550771695.9,286047000.5,N
1550771715.8,286047001.9,N
1550771735.6,286047004.2,N
1550771755.4,286047001.6,N
1550771775.3,286047000.1,N
1550771795.1,286046999.9,N
1550771815.8,286047000.1,N
1550771835.7,286047000.3,N
1550771855.5,286046999.9,N
1550771875.4,286046999.7,N
1550771895.2,286047001.8,N
1550771915.0,286047001.5,N
1550771915.9,286047001.5,N
1550771935.8,286047000.2,N
1550771955.6,286046998.6,N
1550771975.5,286046998.9,N
1550771995.3,286046998.4,N
